Temp
95 94 93 92 91 91 90 91 90 91 91 90 91 91 91 91 92 91 90 89 88 86 86 84 82 82 83 82 80 84 82 81 74 69 67 69 69 67 71 73 75 71 70
95 94 93 92 92 91 90 91 92 91 91 91 90 90 90 90 90 89 89 91 89 85 81 81 82 85 80 80 79 77 78 79 77 67 67 69 67 70 73 71 75 68 68
94 93 92 91 89 89 89 90 91 91 91 92 91 90 89 89 89 89 89 89 89 88 78 79 81 81 79 79 78 79 81 81 76 70 67 69 71 71 73 74 72 73 67
90 91 91 91 91 91 91 91 91 91 91 92 92 92 91 90 89 89 88 89 87 85 78 84 80 82 80 77 79 77 78 78 76 74 71 71 67 71 74 71 69 65 62
83 89 87 88 91 90 90 91 91 91 93 93 92 91 91 91 92 89 89 88 86 82 80 83 83 77 69 71 78 77 75 77 80 77 71 70 72 71 71 74 61 60 59
78 74 74 79 85 86 87 88 87 86 85 87 90 89 88 92 70 71 79 87 86 84 74 79 76 72 69 66 66 65 68 73 73 77 74 71 70 73 70 72 66 61 59
75 73 73 74 74 81 83 80 81 85 81 81 87 86 87 87 66 66 68 87 85 80 74 74 76 82 74 74 65 65 65 66 68 73 72 72 70 71 72 68 68 66 60
79 76 76 78 78 81 82 83 81 83 83 85 87 88 86 76 64 63 66 84 79 80 78 74 74 75 76 75 77 75 75 75 70 78 74 72 72 73 73 73 68 68 64
76 75 76 79 79 80 78 80 81 81 81 84 87 83 82 78 64 64 69 81 80 76 74 74 77 76 66 65 76 74 73 72 62 60 61 62 62 63 65 73 74 68 63
78 76 77 77 77 76 76 79 80 80 81 82 85 85 75 81 62 60 65 81 77 77 75 72 68 74 64 63 75 74 71 71 72 70 69 65 66 68 65 73 76 70 70
80 80 78 78 76 78 78 79 79 77 79 81 84 85 84 81 81 58 57 74 72 72 73 73 73 60 60 59 58 76 73 73 69 73 74 74 74 74 77 75 73 75 69
79 78 79 79 78 77 76 78 79 75 77 80 82 83 88 85 66 58 55 58 66 73 72 74 71 56 56 56 60 58 60 67 76 76 76 75 75 77 75 75 72 72 74
76 76 77 78 79 76 75 76 80 81 74 77 77 80 78 87 79 58 55 57 60 69 73 69 59 53 54 56 57 58 60 76 79 77 76 76 76 76 72 73 72 72 73
75 74 76 76 76 77 75 79 79 79 79 74 73 74 81 80 79 70 69 69 60 65 63 64 61 62 62 66 63 66 77 80 80 79 78 77 76 73 74 76 74 75 74
76 77 77 80 79 78 75 74 75 76 68 72 74 66 71 78 63 54 54 67 69 66 65 67 65 64 65 68 71 73 75 80 78 80 78 75 73 75 75 77 77 76 74
78 80 79 80 80 79 76 75 57 55 51 48 47 53 67 56 48 48 49 48 52 53 66 66 66 66 67 69 70 73 77 76 78 80 77 76 76 76 75 76 77 76 75
75 77 79 78 80 78 76 74 70 68 51 49 48 48 47 47 46 45 47 48 48 54 67 67 67 67 69 71 74 77 77 79 77 79 77 75 71 76 73 75 76 76 76
77 62 78 79 80 80 77 73 69 68 66 67 53 53 50 47 47 45 45 49 58 58 66 66 67 68 70 72 78 79 78 79 78 77 78 72 73 77 75 75 76 75 75
77 78 76 77 78 74 77 76 67 65 65 66 66 57 54 50 47 45 45 62 63 63 65 65 66 67 68 68 67 67 69 71 76 76 75 71 77 77 75 78 77 63 69
76 64 68 74 75 76 76 74 67 62 61 62 62 58 55 57 63 66 64 65 67 66 67 66 64 64 64 64 64 64 63 63 61 66 68 67 75 77 77 74 75 75 75
76 76 63 75 73 73 71 67 62 60 59 60 59 55 46 52 59 62 62 60 61 61 64 67 72 73 71 68 64 63 63 62 62 62 63 65 65 73 75 76 70 71 76
75 74 74 72 70 67 60 62 60 58 58 57 57 55 46 55 55 56 56 58 58 58 59 62 64 65 71 70 67 66 65 62 62 62 62 64 68 73 71 71 68 70 70
73 71 69 68 63 57 59 59 58 56 55 55 55 53 52 50 50 51 53 53 53 54 55 57 61 63 63 64 70 69 66 65 65 65 64 64 66 70 66 72 71 66 69
71 68 66 62 58 55 53 53 53 50 52 52 52 51 50 49 48 48 49 51 51 51 51 52 52 53 54 57 62 68 70 69 68 66 65 63 64 60 69 71 72 71 70
69 65 59 53 52 50 49 49 49 50 49 49 48 48 48 48 47 47 47 47 48 48 50 51 50 50 50 50 52 54 41 33 57 57 66 64 64 65 65 68 69 67 66
68 64 55 53 51 49 48 47 47 47 46 46 46 46 46 46 46 47 48 48 47 51 52 54 55 54 54 52 49 38 34 33 42 38 65 65 64 63 65 72 71 72 66
MSLP
1009.63 1010.07 1010.69 1011.15 1011.52 1011.88 1011.99 1012.11 1012.29 1012.27 1012.31 1012.35 1012.34 1012.31 1012.30 1012.30 1012.29 1012.10 1012.08 1012.03 1012.12 1012.39 1012.51 1012.86 1013.13 1013.38 1013.24 1013.51 1013.34 1012.99 1012.82 1012.96 1013.22 1015.22 1016.33 1016.73 1016.79 1016.76 1016.52 1016.50 1016.28 1016.54 1017.20
1008.97 1009.61 1010.11 1010.64 1011.01 1011.23 1011.49 1011.62 1011.78 1011.86 1011.92 1011.96 1011.99 1012.04 1012.07 1012.05 1011.94 1011.87 1011.63 1011.38 1011.45 1011.83 1012.35 1012.59 1012.91 1012.96 1013.42 1013.60 1013.45 1013.28 1013.36 1013.25 1013.57 1015.02 1016.04 1016.18 1016.50 1016.37 1016.25 1016.39 1015.93 1016.83 1017.03
1008.68 1009.31 1009.96 1010.37 1010.80 1011.01 1011.10 1011.24 1011.39 1011.43 1011.46 1011.34 1011.19 1011.17 1011.25 1011.32 1011.38 1011.30 1011.46 1011.41 1011.37 1011.37 1012.08 1012.55 1012.73 1013.04 1013.43 1013.67 1013.59 1013.26 1012.96 1013.22 1013.75 1014.87 1015.53 1015.84 1015.85 1016.09 1016.11 1015.94 1016.05 1016.06 1017.05
1009.16 1009.64 1009.83 1010.08 1010.40 1010.57 1010.59 1010.61 1010.70 1010.72 1010.71 1010.60 1010.40 1010.32 1010.36 1010.43 1010.57 1010.61 1010.87 1010.88 1010.97 1011.15 1011.82 1012.32 1012.71 1012.85 1013.32 1013.79 1013.55 1013.69 1013.46 1013.63 1014.09 1014.42 1014.87 1015.45 1015.76 1015.75 1015.74 1015.51 1015.75 1016.45 1017.30
1009.83 1010.18 1010.80 1010.68 1010.31 1010.67 1010.42 1010.30 1010.36 1010.33 1010.00 1010.08 1009.84 1009.87 1009.88 1009.83 1009.92 1010.05 1010.27 1010.49 1010.70 1011.40 1012.00 1012.50 1012.80 1013.21 1013.79 1014.15 1013.82 1013.83 1013.87 1013.79 1013.58 1013.64 1014.72 1015.20 1014.66 1014.86 1014.92 1014.95 1015.86 1016.66 1017.18
1010.53 1011.05 1012.45 1012.43 1011.94 1011.53 1011.25 1010.55 1010.08 1010.42 1010.83 1010.34 1009.67 1009.79 1009.75 1009.39 1009.28 1009.56 1009.90 1010.07 1010.60 1011.22 1012.05 1012.39 1013.39 1014.02 1014.20 1014.68 1014.56 1014.66 1014.49 1014.20 1014.14 1013.54 1013.89 1014.58 1014.76 1014.67 1014.95 1015.32 1015.90 1016.53 1017.04
1011.15 1011.30 1010.99 1012.82 1013.33 1011.67 1011.57 1010.92 1009.38 1009.79 1010.53 1010.38 1009.66 1009.75 1009.60 1009.43 1010.32 1010.13 1009.91 1010.17 1010.40 1011.17 1011.82 1011.87 1012.92 1013.35 1014.28 1014.88 1014.88 1014.92 1014.74 1014.97 1015.15 1014.88 1014.44 1014.71 1015.26 1015.21 1015.20 1015.16 1015.75 1016.36 1016.64
1011.69 1012.26 1012.46 1012.32 1012.15 1012.33 1011.64 1010.58 1010.19 1009.85 1009.91 1009.55 1009.06 1009.07 1009.16 1010.23 1010.00 1010.28 1010.54 1010.43 1010.81 1010.99 1011.29 1011.39 1012.04 1013.08 1013.82 1014.84 1014.52 1014.55 1014.69 1014.93 1015.59 1014.97 1015.32 1015.61 1015.87 1015.63 1015.42 1015.33 1015.61 1015.66 1016.14
1012.27 1012.39 1012.39 1012.28 1012.39 1012.39 1011.48 1011.13 1010.13 1009.58 1009.66 1009.34 1008.89 1009.46 1009.60 1010.04 1010.45 1010.34 1010.36 1010.33 1010.56 1010.92 1011.23 1010.62 1011.10 1011.90 1012.89 1014.55 1014.65 1014.56 1014.63 1015.26 1015.86 1016.00 1016.57 1016.57 1016.56 1016.64 1016.23 1015.56 1014.70 1015.06 1015.41
1012.42 1012.45 1012.20 1012.04 1011.95 1011.51 1011.30 1010.35 1009.91 1009.51 1009.24 1009.04 1008.62 1009.07 1009.26 1009.88 1010.47 1010.40 1010.68 1010.48 1010.84 1011.07 1011.25 1011.17 1011.30 1011.91 1011.90 1013.53 1014.53 1014.67 1014.68 1015.20 1015.32 1015.87 1016.58 1016.84 1016.52 1016.43 1016.24 1015.51 1014.72 1014.85 1014.83
1012.28 1011.94 1012.07 1011.81 1011.52 1011.30 1010.86 1010.36 1009.98 1009.47 1009.05 1009.06 1008.69 1008.74 1008.90 1009.23 1009.33 1010.26 1010.69 1010.86 1010.97 1011.14 1011.29 1011.66 1011.96 1012.24 1012.61 1012.93 1014.35 1014.56 1014.45 1015.11 1015.61 1015.47 1015.42 1015.75 1015.86 1015.90 1015.29 1015.38 1015.58 1014.86 1014.96
1012.47 1012.46 1012.19 1012.05 1012.07 1011.85 1011.54 1011.04 1010.47 1009.95 1009.55 1009.27 1008.88 1008.63 1008.10 1008.74 1009.46 1010.44 1010.90 1011.24 1011.16 1011.10 1011.29 1011.43 1011.64 1012.78 1012.61 1013.29 1014.24 1014.64 1014.79 1014.95 1014.86 1014.89 1014.70 1014.87 1015.03 1015.01 1015.69 1015.89 1016.23 1016.14 1015.83
1012.38 1012.24 1012.10 1011.99 1011.98 1012.10 1011.98 1011.35 1010.76 1010.11 1010.04 1009.89 1009.55 1008.93 1008.64 1008.28 1009.63 1010.25 1011.02 1011.43 1011.24 1011.27 1011.11 1011.47 1011.85 1012.62 1013.10 1013.99 1014.42 1014.68 1014.94 1014.59 1014.03 1014.14 1014.31 1014.66 1015.16 1015.67 1016.33 1016.43 1016.50 1016.52 1016.26
1012.55 1012.60 1012.42 1012.12 1011.94 1011.94 1012.21 1011.44 1011.39 1011.02 1010.82 1010.80 1010.45 1009.83 1008.92 1008.57 1009.33 1010.42 1010.97 1011.15 1011.56 1011.09 1011.07 1011.69 1012.40 1012.80 1013.32 1013.94 1014.68 1014.85 1014.33 1013.62 1013.51 1013.54 1013.94 1014.60 1015.32 1015.83 1015.75 1015.84 1015.90 1015.93 1015.94
1012.50 1012.40 1012.33 1012.00 1011.86 1011.86 1012.01 1012.15 1012.07 1011.93 1012.43 1012.28 1011.85 1011.59 1011.08 1010.05 1011.09 1011.52 1011.75 1011.22 1011.21 1010.87 1011.16 1012.18 1012.65 1012.97 1013.18 1013.67 1014.01 1014.09 1013.88 1013.23 1013.39 1013.54 1014.03 1014.90 1015.15 1015.19 1015.36 1015.52 1015.44 1015.45 1015.79
1012.08 1012.08 1012.29 1012.10 1012.00 1011.91 1012.06 1011.95 1012.34 1012.51 1012.76 1012.82 1012.59 1012.67 1012.09 1011.98 1012.17 1012.13 1012.06 1011.52 1011.08 1010.89 1011.11 1011.81 1012.18 1012.69 1012.70 1012.80 1013.28 1013.34 1013.05 1012.96 1013.11 1013.34 1014.01 1014.33 1014.66 1014.87 1015.12 1015.38 1015.41 1015.31 1015.31
1012.80 1012.67 1012.47 1012.03 1011.88 1011.89 1012.02 1012.16 1012.44 1012.24 1012.59 1012.59 1012.74 1012.68 1012.67 1012.62 1012.06 1011.65 1011.56 1011.57 1011.10 1011.28 1011.02 1011.34 1011.70 1011.91 1012.16 1012.29 1012.25 1012.16 1012.21 1012.30 1012.88 1013.15 1013.80 1014.08 1014.41 1014.60 1015.18 1015.20 1015.16 1015.17 1015.27
1012.86 1012.99 1012.74 1012.63 1012.24 1012.02 1012.32 1012.69 1013.16 1013.09 1012.84 1012.68 1012.87 1012.49 1012.30 1012.29 1012.17 1011.70 1011.34 1011.54 1011.41 1011.47 1011.00 1011.14 1011.22 1011.36 1011.62 1011.69 1011.26 1011.21 1011.53 1011.86 1012.37 1012.96 1013.42 1014.27 1014.44 1014.32 1014.92 1014.85 1015.18 1015.01 1015.28
1013.15 1013.03 1013.34 1013.06 1012.66 1012.74 1012.55 1012.49 1013.42 1013.46 1013.23 1012.77 1012.71 1012.46 1012.35 1012.08 1011.99 1011.79 1011.45 1011.40 1011.31 1011.24 1011.03 1010.97 1010.88 1010.82 1011.01 1011.24 1011.41 1011.27 1011.14 1011.68 1012.28 1012.71 1013.34 1014.16 1013.80 1014.01 1014.44 1014.35 1014.65 1015.08 1015.12
1012.99 1013.68 1013.60 1013.43 1013.09 1012.68 1012.68 1012.71 1013.30 1013.64 1013.56 1013.20 1012.86 1013.04 1013.10 1012.01 1011.83 1011.44 1011.13 1010.98 1010.77 1010.74 1010.82 1010.56 1010.65 1010.74 1011.17 1011.37 1011.59 1011.83 1011.81 1012.19 1012.86 1013.38 1013.96 1014.37 1013.78 1013.81 1014.29 1014.31 1014.49 1014.97 1015.03
1013.24 1013.14 1013.70 1013.24 1013.49 1013.39 1013.49 1013.92 1014.25 1014.11 1013.84 1013.59 1013.62 1013.70 1013.92 1013.05 1012.40 1012.00 1011.62 1011.61 1011.44 1011.08 1010.99 1010.61 1010.20 1010.20 1010.80 1011.31 1011.64 1011.82 1012.10 1012.42 1012.97 1013.51 1014.31 1014.43 1014.50 1014.09 1014.23 1014.68 1014.90 1015.02 1015.07
1013.42 1013.47 1013.68 1013.76 1014.09 1014.27 1015.02 1015.00 1014.65 1014.53 1014.40 1014.13 1013.99 1013.84 1013.90 1013.23 1012.85 1012.54 1012.49 1012.24 1012.11 1011.95 1011.70 1011.36 1011.06 1010.91 1010.72 1010.92 1011.28 1011.66 1012.02 1012.35 1012.85 1013.43 1013.93 1014.32 1014.49 1014.35 1014.61 1014.91 1015.28 1015.10 1014.95
1014.07 1014.19 1014.43 1014.78 1015.31 1015.63 1015.38 1015.28 1015.17 1015.04 1014.89 1014.61 1014.38 1014.20 1014.15 1013.94 1013.63 1013.22 1012.99 1012.96 1012.81 1012.46 1012.13 1011.91 1011.86 1011.68 1011.34 1011.04 1010.91 1011.45 1011.83 1012.10 1012.49 1013.14 1013.59 1013.99 1014.12 1014.44 1014.64 1014.63 1015.07 1015.28 1015.08
1014.60 1014.75 1015.25 1015.89 1016.27 1016.54 1016.28 1016.09 1015.73 1015.56 1015.42 1015.17 1015.00 1014.88 1014.75 1014.54 1014.29 1013.93 1013.58 1013.25 1012.99 1012.91 1012.74 1012.56 1012.44 1012.18 1012.33 1012.15 1011.95 1011.59 1011.34 1011.62 1012.16 1012.75 1013.13 1013.56 1014.13 1014.52 1014.44 1014.54 1014.73 1015.01 1015.10
1015.18 1015.60 1016.53 1017.03 1017.22 1017.28 1016.97 1016.64 1016.33 1016.14 1015.96 1015.83 1015.63 1015.30 1015.24 1015.11 1014.78 1014.52 1014.32 1013.81 1013.71 1013.27 1013.11 1012.83 1013.07 1013.06 1012.93 1012.69 1012.55 1012.46 1012.68 1012.99 1012.30 1012.39 1012.87 1013.36 1013.71 1014.09 1014.38 1014.48 1014.76 1015.03 1015.46
1015.67 1016.55 1017.81 1017.92 1017.80 1017.69 1017.48 1017.21 1016.93 1016.68 1016.56 1016.47 1016.30 1016.05 1015.87 1015.57 1015.52 1015.20 1015.15 1014.49 1014.01 1013.48 1013.15 1012.83 1012.79 1012.75 1012.61 1012.52 1012.62 1012.88 1012.97 1013.13 1012.98 1012.82 1012.44 1012.88 1013.37 1013.75 1014.03 1013.84 1014.39 1014.76 1015.35
Wind_Speed
13 12 11 10 10 10 9 9 9 9 8 9 9 9 9 8 8 7 7 8 8 5 6 5 5 1 3 3 5 5 4 4 5 5 4 4 5 5 4 0 4 5 7
12 9 10 9 8 9 9 9 9 9 9 9 9 9 10 10 9 9 10 10 8 7 5 4 5 3 1 2 6 2 4 2 5 6 3 5 5 5 4 2 1 10 8
8 10 9 8 8 8 8 8 8 9 10 11 10 10 10 10 10 9 9 9 9 7 5 4 3 3 3 3 2 5 3 4 4 7 3 2 3 3 4 4 7 6 7
4 5 8 10 10 10 9 9 9 10 11 12 11 11 11 11 11 9 9 10 9 4 3 3 2 4 2 3 1 2 4 2 4 4 5 4 5 5 4 4 4 5 4
6 3 3 5 4 5 4 3 6 10 10 10 12 12 12 11 10 12 10 10 8 2 2 3 2 8 13 7 5 3 1 4 2 5 5 5 4 3 3 2 3 2 2
9 7 5 13 11 7 6 3 1 7 13 15 11 10 13 11 8 6 6 7 5 3 6 6 6 5 9 9 9 11 8 4 4 6 5 3 3 4 4 2 5 4 2
7 5 5 2 8 10 10 6 4 8 9 11 11 12 12 10 8 6 6 8 5 6 8 7 6 6 6 5 7 6 7 7 7 7 3 1 3 3 3 3 4 2 2
6 5 2 7 3 11 9 7 7 7 10 10 11 12 11 3 6 2 5 7 6 8 10 10 7 11 7 5 5 6 7 7 9 6 4 4 4 2 1 1 4 3 2
5 4 4 4 3 8 7 8 8 7 9 9 7 5 7 3 4 8 8 8 11 11 10 13 10 13 15 6 4 5 6 6 10 14 9 7 7 6 6 6 4 4 2
4 3 5 6 7 8 6 9 8 9 10 6 11 6 4 8 8 6 7 6 9 7 9 6 8 12 19 12 6 6 6 6 6 6 5 3 3 2 8 6 7 2 6
5 6 6 8 8 10 11 11 11 9 9 8 8 7 8 9 5 11 7 4 4 3 5 7 6 14 15 15 7 6 6 8 6 6 5 5 5 5 3 4 6 5 6
5 5 6 6 7 7 10 10 10 7 8 7 6 6 7 5 7 7 3 9 6 7 8 7 9 15 14 13 5 10 11 8 7 5 5 5 3 3 4 5 4 7 6
8 8 7 8 6 5 8 8 10 6 6 8 6 6 6 4 4 5 4 8 8 7 2 7 15 15 14 8 9 11 11 7 6 5 4 3 3 5 4 3 4 4 5
5 6 7 7 6 6 6 8 8 8 8 6 7 9 5 7 8 4 1 2 5 3 8 10 12 12 11 7 9 8 8 7 5 4 4 4 5 6 6 5 5 5 5
3 3 4 5 6 5 5 5 6 7 5 7 6 6 9 10 5 5 5 3 5 6 11 9 9 9 9 8 8 9 9 7 6 4 5 5 5 6 5 5 4 5 5
5 7 5 5 5 7 6 8 4 6 6 7 5 3 7 5 5 4 5 8 3 13 5 8 9 9 9 9 9 11 10 8 8 7 6 7 6 6 6 5 5 4 6
5 6 6 6 6 5 6 7 9 8 9 9 9 7 7 10 12 7 6 3 5 5 5 8 8 10 10 10 10 11 11 9 8 7 8 7 3 5 5 6 6 6 6
6 6 6 7 8 7 7 5 7 8 9 6 7 9 5 7 8 4 0 5 2 3 3 7 8 9 10 11 10 10 9 9 10 9 8 5 6 7 8 7 6 6 6
6 6 7 8 8 7 8 5 5 7 8 7 7 3 5 9 7 4 4 3 5 5 4 4 3 3 3 2 2 3 5 3 9 10 9 8 8 8 7 7 7 3 6
5 7 4 7 8 8 8 9 6 7 7 8 7 6 7 6 6 0 2 5 3 6 5 5 4 3 2 2 3 3 4 6 6 3 6 5 7 7 7 5 6 8 7
5 6 3 6 9 9 8 8 8 7 7 6 6 4 8 4 6 6 3 4 4 4 4 3 4 6 6 6 5 5 5 6 7 7 5 2 1 7 5 4 2 4 8
6 7 8 8 8 9 8 10 9 7 7 7 6 5 10 4 4 3 4 4 4 3 3 3 3 5 1 5 6 7 7 7 7 8 7 7 8 6 6 5 2 3 4
8 9 9 9 9 10 10 9 8 7 7 7 6 6 5 4 4 4 3 3 4 4 3 3 2 1 3 5 3 6 8 8 9 9 10 7 6 8 5 8 6 2 4
10 10 10 9 8 8 8 9 8 7 7 6 6 5 5 5 4 4 4 4 4 3 3 3 3 5 3 3 2 3 3 8 6 9 11 8 8 6 8 9 8 6 2
10 10 10 9 8 8 7 7 7 6 6 5 5 5 5 4 4 4 4 4 4 3 3 2 2 3 2 3 3 4 7 8 6 9 9 10 11 11 7 8 8 3 3
10 9 6 6 6 6 5 5 6 5 5 5 4 4 5 5 5 4 5 4 4 3 2 2 2 3 3 2 0 4 4 6 5 7 10 9 10 9 9 14 17 11 8
Wind_Direction
206 198 205 206 216 218 232 236 245 257 260 265 268 270 272 268 272 272 251 276 268 237 271 250 269 261 359 333 325 352 321 341 328 98 99 187 205 248 148 320 244 106 137
193 212 204 205 216 216 226 240 247 252 254 255 260 269 275 273 267 262 263 270 259 229 245 260 260 253 204 210 296 38 35 1 342 92 161 173 220 237 103 195 292 131 176
187 190 210 208 213 224 237 244 251 257 259 261 262 257 252 258 268 252 253 264 261 261 213 234 242 219 247 359 343 333 26 29 117 125 124 186 183 156 220 195 189 145 81
146 241 213 212 217 222 225 231 240 247 256 260 258 256 251 246 244 242 245 245 248 248 190 214 206 221 225 223 114 214 86 294 107 149 135 167 231 146 233 228 183 115 118
53 49 340 285 311 294 276 317 323 320 292 278 269 270 261 254 244 231 232 246 254 286 169 182 236 71 61 42 331 66 109 257 247 135 146 205 211 198 143 290 109 101 110
79 83 16 351 345 324 310 262 279 295 304 307 304 289 287 275 338 214 223 222 207 210 126 127 111 110 89 65 68 58 54 8 320 321 139 156 128 214 116 357 42 22 42
118 121 125 276 273 280 268 264 303 288 281 282 292 287 284 273 20 326 220 233 201 147 153 141 166 156 149 129 97 109 78 53 18 328 56 79 124 20 42 164 92 68 178
86 109 232 229 307 276 286 295 302 302 287 289 293 295 287 111 101 132 270 217 158 151 163 152 179 140 145 172 167 125 108 97 42 304 87 69 65 57 338 45 169 195 179
29 11 8 318 295 286 307 282 300 307 296 287 290 287 295 183 203 188 191 185 180 164 174 166 160 154 138 241 196 138 113 123 85 69 74 64 55 19 347 293 219 283 113
55 8 353 6 343 337 322 327 322 315 290 282 283 260 264 282 191 204 232 189 204 204 175 150 131 159 148 166 223 169 149 143 128 121 126 126 181 135 308 332 342 303 12
27 19 360 2 355 349 342 344 338 333 304 267 275 264 256 260 280 190 191 265 246 198 164 155 162 149 163 152 229 195 146 143 145 173 158 167 176 183 177 63 360 20 26
28 15 8 10 349 350 335 328 326 329 305 275 259 264 247 238 80 174 218 237 258 221 214 193 153 169 153 152 205 123 123 154 182 190 183 168 182 163 97 68 43 33 49
11 5 0 345 1 10 330 339 319 338 355 332 305 268 274 171 154 77 256 258 255 253 199 161 143 155 137 107 139 145 155 213 183 194 196 163 148 74 87 142 101 111 71
29 6 345 334 337 11 336 335 337 341 342 336 351 332 261 280 92 110 158 275 226 146 108 127 153 151 143 139 144 175 195 215 194 202 172 136 133 159 199 170 156 175 124
60 27 359 339 326 323 350 328 337 0 360 333 346 346 338 329 47 27 336 251 215 145 123 131 142 149 158 164 185 193 211 206 193 186 153 170 181 187 162 193 164 169 143
13 38 25 336 348 345 338 325 214 245 208 237 256 270 334 27 38 306 303 312 227 155 136 156 162 170 177 175 189 197 208 204 199 177 174 184 185 186 162 183 179 201 150
5 18 338 330 347 346 336 343 328 318 222 234 244 252 249 287 308 317 270 271 215 201 178 179 177 178 185 192 202 199 201 202 191 186 189 180 185 188 177 176 187 183 158
353 137 342 336 333 336 348 342 322 321 324 335 249 245 264 294 320 325 181 157 107 220 239 189 187 185 195 211 210 202 194 187 184 193 186 167 216 165 206 174 193 182 169
350 358 351 325 320 328 303 359 338 323 318 319 323 301 13 345 296 42 107 286 186 207 226 197 207 193 203 159 88 357 147 185 184 202 165 188 203 179 207 181 164 219 169
356 119 287 336 312 320 335 330 343 329 320 321 330 344 332 349 319 60 12 341 201 189 221 190 194 179 174 147 139 121 105 118 104 111 156 232 202 200 189 215 163 179 195
338 339 334 330 337 331 337 335 325 323 320 323 322 0 329 318 315 352 56 25 5 27 14 349 223 178 186 187 169 158 155 148 147 147 174 237 246 237 180 185 355 165 197
351 349 342 342 335 347 339 314 317 320 319 318 322 325 334 320 346 357 357 354 355 4 352 343 6 16 184 175 179 186 180 166 166 167 170 192 219 198 189 172 265 237 216
16 359 358 358 355 337 319 320 321 324 324 318 323 325 332 333 345 343 335 347 334 330 339 341 348 4 16 8 190 188 193 190 183 179 184 200 182 189 192 183 204 261 258
22 10 5 5 359 336 334 328 322 329 325 324 325 330 334 340 334 341 340 325 325 323 344 348 354 14 348 343 330 258 211 188 182 188 184 168 171 189 193 191 198 198 136
30 20 14 358 354 344 337 335 332 341 344 344 341 347 353 356 344 345 334 342 319 327 334 341 353 321 319 317 316 333 38 345 276 189 180 177 182 185 202 189 195 182 185
37 37 23 4 355 351 348 348 348 359 2 8 358 16 358 11 359 347 312 312 315 285 319 341 337 316 294 254 321 3 335 305 296 291 185 184 183 183 200 202 194 197 203